Location: Waco, TX
(31.5480°N, 97.1670°W)
Time: 22:30:59
(UTC-05:00)

ELECTRON R/B - Visible Passes

Search period start: 20 May 2018 00:00
Search period end: 30 May 2018 00:00
Orbit: 285 x 480 km, 82.9° (Epoch: 20 May)

Date Brightness Start Highest point End Pass type
(mag) Time Alt. Az. Time Alt. Az. Time Alt. Az.
21 May 7.2 22:15:57 10° N 22:16:24 14° N 22:16:24 14° N visible
23 May 6.1 21:55:52 10° NNE 21:57:08 24° NNE 21:57:08 24° NNE visible
24 May 7.3 22:32:24 10° NW 22:33:34 18° WNW 22:33:34 18° WNW visible
25 May 5.3 21:35:29 10° NNE 21:37:41 30° E 21:37:41 30° E visible
26 May 6.4 22:11:36 10° NNW 22:13:44 25° W 22:14:03 24° WSW visible
27 May 5.7 21:14:49 10° NNE 21:16:58 25° E 21:18:06 18° ESE visible
28 May 6.1 21:50:31 10° NNW 21:52:49 32° W 21:54:24 17° SSW visible
29 May 6.0 20:53:52 10° NNE 20:55:54 21° E 20:57:59 10° SE visible
